GSAT0207 (GALILEO 15) (41859 NORAD) Tracking and Keplerian Element Data

This shows tracking and keplerian element data for the satellite.

Feedback or suggestion? Click here.




ElementValue
Catalog41859
NameGSAT0207 (GALILEO 15)
Epoch Orbit1450
Epoch Day78.0794378
Epoch Year2019
RAAN174.5248
Inclination54.5956
Eccentricity0.0004336
Argument of Perigee288.4376
Mean Anonmoly71.5239
Mean Motion1.70473822
Decay Rate-1.3E-07
L11 41859U 16069A 19078.07943780 -.00000013 00000-0 00000-0 0 9997
L22 41859 54.5956 174.5248 0004336 288.4376 71.5239 1.70473822 14509

Live tracking and technical data element details for GSAT0207 (GALILEO 15) (NORAD 41859). GSAT0207 (GALILEO 15) can be tracked NOW for your location showing map with azimuth and elevation plus other details from your city location.

Track the satellite on the map from your city or location and see movement details for azimuth, elevation, latitude, longitude, range, height, and movement on the map or in text.







IsCatalogInMostPopularTable: catalog: 41859, numindb: 205
Update: records affected: 1



GetName: 41859 GSAT0207 (GALILEO 15)

Hit Count: updated at: Sat, 23 Mar 2019 00:12:59 GMT